Regional Weather Roundup
Issued by NWS

Home | Current Version | Previous Version | Graphics & Text | Print | Product List | Glossary On
Versions: 1 2 3 4 5 6 7 8 9 10 11 12 13 14 15 16 17 18 19 20 21 22 23 24 25 26 27 28 29 30 31 32 33 34 35 36 37 38 39 40 41 42 43 44 45 46 47 48 49 50
000
ASUS43 KFSD 240002
RWRSD

WEATHER ROUNDUP FOR SOUTH DAKOTA
NATIONAL WEATHER SERVICE SIOUX FALLS SD
700 PM CDT MON OCT 23 2017

NOTE: "FAIR" INDICATES FEW OR NO CLOUDS BELOW 12,000 FEET WITH NO
SIGNIFICANT WEATHER AND/OR OBSTRUCTIONS TO VISIBILITY.


SDZ001>005-009-010-012>017-240100-
NORTHWEST AND NORTH CENTRAL SOUTH DAKOTA

CITY           SKY/WX    TMP DP  RH WIND       PRES   REMARKS
BUFFALO          N/A     50  23  34 NW23G31   30.28R
FAITH            N/A     51  23  33 NW25G33   30.27R
MOBRIDGE       CLOUDY    55  28  35 NW28G37   30.15R
$$

SDZ012>016-024>037-041>051-057-063-072>074-240100-
SOUTHWEST AND SOUTH CENTRAL SOUTH DAKOTA

CITY           SKY/WX    TMP DP  RH WIND       PRES   REMARKS
RAPID CTY ARPT PTCLDY    50  22  33 NW23G32   30.36R
PIERRE         MOCLDY    54  28  36 NW23G32   30.19R
CUSTER         PTCLDY    41  17  38 NW9G22    30.40R
ELLSWORTH AFB  PTCLDY    50  22  33 NW21G30   30.35R
PHILIP         PTCLDY    54  22  28 NW18      30.27R
PINE RIDGE     PTCLDY    53  15  22 N14G23    30.35R
SPEARFISH      FAIR      48  19  32 NW21G30   30.40R
WINNER         FAIR      52  29  41 NW16      30.21R
$$

SDZ004>011-016>023-039-040-240100-
NORTHEAST SOUTH DAKOTA

CITY           SKY/WX    TMP DP  RH WIND       PRES   REMARKS
ABERDEEN       LGT RAIN  50  36  58 NW24G39   30.09R
WATERTOWN      CLOUDY    48  37  65 NW25G36   30.03R
BROOKINGS      LGT RAIN  50  34  54 NW16      30.02S
SISSETON         N/A     50  38  63 NW26G36   30.00R
$$

SDZ017-020-022-023-036>040-048>070-240100-
SOUTHEAST SOUTH DAKOTA

CITY           SKY/WX    TMP DP  RH WIND       PRES   REMARKS
SIOUX FALLS    CLOUDY    51  37  58 NW12G22   30.04R
HURON          CLOUDY    53  32  44 N18G29    30.09R
CHAMBERLAIN    PTCLDY    54  33  44 NW15G22   30.17R
MITCHELL       CLOUDY    54  32  43 NW16G25   30.11R
YANKTON        MOCLDY    54  33  45 NW17G24   30.09S
$$

ABBREVIATIONS USED IN REMARKS
   TC - TEMPERATURE IN CELSIUS
  WCI - WIND CHILL INDEX
   HX - HEAT INDEX
  VSB - VISIBILITY





USA.gov is the U.S. government's official web portal to all federal, state and local government web resources and services.